Regional Weather Roundup
Issued by NWS

Home | Current Version | Previous Version | Graphics & Text | Print | Product List | Glossary On
Versions: 1 2 3 4 5 6 7 8 9 10 11 12 13 14 15 16 17 18 19 20 21 22 23 24 25 26 27 28 29 30 31 32 33 34 35 36 37 38 39 40 41 42 43 44 45 46 47 48 49 50
721
ASUS43 KMKX 222100
RWRWI

WISCONSIN REGIONAL WEATHER ROUNDUP
NATIONAL WEATHER SERVICE MILWAUKEE/SULLIVAN WI
400 PM CDT SAT JUL 22 2017

NOTE: "FAIR" INDICATES FEW OR NO CLOUDS BELOW 12,000 FEET WITH NO
SIGNIFICANT WEATHER AND/OR OBSTRUCTIONS TO VISIBILITY.

WIZ001-002-006>008-014>016-023>028-222200-
NORTHWEST WISCONSIN

CITY           SKY/WX    TMP DP  RH WIND       PRES   REMARKS
SUPERIOR ARPT  NOT AVBL
ASHLAND        SUNNY     76  66  71 N6        29.82S
HAYWARD        MOSUNNY   83  65  54 NW7       29.82S HX  85
SIREN          MOSUNNY   84  64  51 NW8       29.83S HX  85
CUMBERLAND     SUNNY     82  61  47 NW9G17    29.83S HX  83
RICE LAKE      MOSUNNY   86  63  47 W9        29.83S HX  86
CHETEK         MOSUNNY   86  66  50 W6        29.82S HX  88
LADYSMITH      MOSUNNY   85  67  56 W6        29.83S HX  88
EAU CLAIRE     NOT AVBL
MENOMONIE      PTSUNNY   84  69  61 W8        29.81S HX  88
NEW RICHMOND   MOSUNNY   86  66  51 NW10      29.82S HX  88
OSCEOLA        PTSUNNY   86  67  52 NW9G16    29.84S HX  88
$$

WIZ003>005-009-010-017-018-222200-
NORTH CENTRAL WISCONSIN

CITY           SKY/WX    TMP DP  RH WIND       PRES   REMARKS
MANITOWISH WTR CLOUDY    80  67  66 W7        29.82S HX  82
ARBOR VITAE    SUNNY     83  67  58 N8        29.81S HX  86
WOODRUFF       SUNNY     83  67  58 N8        29.81S HX  86
RHINELANDER    MOSUNNY   86  66  51 SW8       29.82F HX  88
EAGLE RIVER    PTSUNNY   81  62  53 NW7       29.82S HX  82
LAND O LAKES   PTSUNNY   82  62  52 W7        29.83F HX  82
PHILLIPS       CLOUDY    82  67  62 W5        29.81S HX  84
TOMAHAWK         N/A     84  65  52 W9        29.82S HX  86
MEDFORD        SUNNY     83  66  56 W8        29.82F HX  84
MERRILL        PTSUNNY   85  68  56 W9        29.81S HX  87
$$

WIZ029-030-035-036-043>047-222200-
CENTRAL WISCONSIN

CITY           SKY/WX    TMP DP  RH WIND       PRES   REMARKS
WAUSAU         MOSUNNY   85  66  53 W12       29.80S HX  87
MOSINEE        PTSUNNY   82  68  61 W10       29.83S HX  85
MARSHFIELD     MOSUNNY   85  68  56 W8        29.82S HX  88
STEVENS POINT  MOSUNNY   82  66  58 W6        29.82S HX  84
WAUPACA        PTSUNNY   86  67  51 W5        29.81S HX  89
WAUTOMA        MOSUNNY   84  70  62 W7        29.81F HX  88
WISC RAPIDS    SUNNY     85  69  58 W6        29.82F HX  89
CAMP DOUGLAS   NOT AVBL
$$

WIZ011>013-019>022-031-037>040-048>050-222200-
NORTHEAST WISCONSIN

CITY           SKY/WX    TMP DP  RH WIND       PRES   REMARKS
ANTIGO         MOSUNNY   82  66  57 NW7       29.82F HX  84
SHAWANO        PTSUNNY   84  67  56 CALM      29.79F HX  86
OCONTO         SUNNY     79  66  64 SE5       29.80S HX  81
STURGEON BAY     N/A     78  66  66 CALM      29.81F HX  80
GREEN BAY      PTSUNNY   84  69  60 W7        29.80S HX  88
MANITOWOC      MOSUNNY   79  64  61 SE10      29.81F HX  81
APPLETON       PTSUNNY   81  63  54 VRB5      29.80S HX  82
CLINTONVILLE   MOSUNNY   82  64  54 S3        29.80F HX  84
OSHKOSH        MOSUNNY   82  67  60 NW6       29.80F HX  84
$$

WIZ032>034-041-042-053>061-222200-
SOUTHWEST WISCONSIN

CITY           SKY/WX    TMP DP  RH WIND       PRES   REMARKS
LA CROSSE      MOSUNNY   84  72  67 VRB3      29.81S HX  89
SPARTA         SUNNY     82  69  65 CALM      29.83S HX  85
VIROQUA        MOSUNNY   81  72  75 CALM      29.84F HX  85
BOSCOBEL       PTSUNNY   84  71  65 N3        29.81F HX  89
PRAIRIE DU CHI CLOUDY    80  71  75 W3        29.81F HX  83
PLATTEVILLE    MOSUNNY   82  76  80 CALM      29.83F HX  90
$$

WIZ056-057-062-063-064-067-068-222200-
SOUTH CENTRAL WISCONSIN

CITY           SKY/WX    TMP DP  RH WIND       PRES   REMARKS
REEDSBURG      MOSUNNY   78  71  77 CALM      29.83F HX  81
BARABOO/DELLS  MOSUNNY   82  67  60 SW3       29.84S HX  84
LONE ROCK      NOT AVBL
MINERAL POINT  SUNNY     82  75  78 CALM      29.84F HX  89
MADISON        PTSUNNY   81  70  69 CALM      29.82F HX  84
MIDDLETON      MOSUNNY   81  75  80 CALM      29.83F HX  87
WATERTOWN      CLOUDY    79  73  82 W5        29.83S HX  82
MONROE         MOSUNNY   81  70  69 N3        29.82F HX  84
JANESVILLE     NOT AVBL
$$

WIZ051-052-058>065-066-070>072-222200-
SOUTHEAST WISCONSIN

CITY           SKY/WX    TMP DP  RH WIND       PRES   REMARKS
MILWAUKEE      PTSUNNY   81  72  74 VRB6      29.82S HX  85
WAUKESHA       PTSUNNY   79  70  73 W8        29.83S HX  81
MILWAUKEE/TIMM CLOUDY    79  66  65 SE7       29.83R HX  81
RACINE         PTSUNNY   77  72  84 SE8       29.83S
KENOSHA        MOSUNNY   81  71  71 VRB7      29.82S HX  85
FOND DU LAC    PTSUNNY   81  67  62 NW3       29.81F HX  83
SHEBOYGAN      MOSUNNY   78  71  79 E7        29.81S HX  80
WEST BEND      PTSUNNY   79  70  73 CALM      29.82S HX  81
JUNEAU         CLOUDY    77  70  77 CALM      29.84S
$$

LSZ147-162-222200-
LAKE SUPERIOR

STATION/POSITION TIME  TEMP    WIND        PRES    WAVE
                       AIR SEA DIR/SP/G            HT/PER
                 (UTC) (F)     (DEG/KT/KT) (MB)    (FT/S)
W MID LAKE BUOY  1950   48 47   30/ 10/ 12 1010.2S   2/ 4
DEVILS ISLAND    2000   55      20/  5/  6 1010.9R
SAXON HARBOR     2040   65      40/  8/  9 1009.8S
$$

LMZ867-665-643>646-222200-
LAKE MICHIGAN

STATION/POSITION TIME  TEMP    WIND        PRES    WAVE
                       AIR SEA DIR/SP/G            HT/PER
                 (UTC) (F)     (DEG/KT/KT) (MB)    (FT/S)
CHAMBERS ISLAND  2040   78     320/  6/  6 1008.8F
S GREEN BAY BUOY 2030   75 76  110/  4/  4 1009.0F
N MID LAKE BUOY  1950   69 70   40/  2/  4 1010.1F   0
NORTHPORT PIER   2040   72      90/  6/  8 1009.1F
KEWAUNEE LAKESHO 2030   74      50/  2/  5 1008.8F
SHEBOYGAN LAKESH 2000   69      60/  3/  3 1009.2R
PORT WASHINGTON  2030   74     180/  6/  7 1010.8R
ATWATER BUOY     1909   68 68  100/  4/  6 1010.3R
MILWAUKEE LAKESH 2030   71      70/  5/  5   N/A
S MID LAKE BUOY  1950   70 70  320/  8/ 10 1009.5F   1/ 5
KENOSHA   LAKESH 2000   70      40/  3/  6 1009.5
$$

TC  - TEMPERATURE IN CELSIUS
VSB - VISIBILITY IN STATUTE MILES
WCI - WIND CHILL INDEX
HX  - HEAT INDEX





USA.gov is the U.S. government's official web portal to all federal, state and local government web resources and services.